SCP
0 0 0 0 0 0 0 0 0 0 0 0 0 0 0 0 0 0 0 0 0 0
0 0 0 0 0 0 0 0 0 0 0 0 0 0 0 0 0 0 0 0 0 0
0 0 0 0 0 0 0 0 0 0 0 0 0 0 0 0 0 0 0 0 0 0
0 0 0 0 0 0 0 0 0 0 0 0 0 0 0 0 0 0 0 0 0 0
0 0 0 0 0 0 0 0 0 0 0 0 0 0 0 0 0 0 0 0 0 0
0 0 0 0 0 0 0 0 0 0 0 0 0 0 0 0 0 0 0 0 0 0
0 0 0 0 0 0 0 0 0 0 0 0 0 0 0 0 0 0 0 0 0 0
0 0 0 0 0 0 0 0 0 0 0 0 0 0 0 0 0 0 0 0 0 0
0 0 0 0 0 0 0 0 0 0 0 0 0 0 0 0 0 0 0 0 0 0
0 0 0 0 0 0 0 0 0 0 0 0 0 0 0 0 0 0 0 0 0 0
0 0 0 0 0 0 0 0 0 0 0 0 0 0 0 0 0 0 0 0 0 0
0 0 0 0 0 0 0 0 0 0 0 0 0 0 0 0 0 0 0 0 0 0
0 0 0 0 0 0 0 0 0 0 0 0 0 0 0 0 0 0 0 0 0 0
0 0 0 0 0 0 0 0 0 0 0 0 0 0 0 0 0 0 0 0 0 0
Wind_Speed_500mb
27 25 18 11 8 9 10 14 14 18 24 30 34 35 34 34 33 36 25 33 37 43
30 25 18 12 14 13 12 13 17 23 28 32 33 37 34 36 32 28 35 37 41 40
29 24 17 16 16 13 12 17 23 31 34 37 36 34 34 33 33 33 38 36 40 47
34 30 25 22 16 13 17 21 28 31 34 33 32 31 25 24 25 27 30 36 43 50
32 32 26 24 20 21 22 24 26 25 27 31 36 34 28 24 22 24 29 34 45 43
37 33 29 29 26 21 21 25 20 28 36 39 33 25 23 24 26 29 33 36 39 40
36 38 36 31 23 12 17 20 29 31 35 35 30 22 23 27 29 31 33 33 33 36
42 44 37 24 10 9 17 26 29 34 32 25 23 24 27 29 31 31 31 32 34 35
47 38 27 9 9 15 23 32 30 20 17 16 19 25 27 29 31 33 35 39 40 36
41 28 14 9 10 18 28 24 13 11 12 15 19 24 28 31 33 32 33 36 35 30
32 20 13 10 14 23 22 9 3 7 13 17 21 29 29 26 27 28 30 26 26 23
24 15 11 12 16 9 1 2 7 13 13 17 24 22 24 26 25 24 25 26 25 24
25 18 10 8 4 8 2 7 4 7 11 16 17 20 25 28 25 18 22 23 21 23
22 10 4 12 13 7 15 15 11 8 7 10 14 17 22 25 25 23 23 20 20 27
Wind_Direction_500mb
198 200 193 210 237 273 294 320 342 339 333 330 327 324 323 321 326 323 325 325 328 330
203 198 204 216 224 242 270 286 307 321 319 321 318 317 317 319 321 322 322 320 325 335
200 198 206 222 229 247 264 290 307 315 319 320 323 322 321 321 319 317 314 324 334 336
195 195 210 225 238 253 275 290 300 311 319 325 329 332 340 346 342 337 333 332 334 326
198 207 213 224 239 254 268 289 309 323 326 323 324 323 324 333 332 329 332 339 336 334
202 213 218 217 234 245 274 293 314 320 322 329 338 340 336 337 332 328 330 334 330 331
208 219 221 227 229 263 295 306 315 326 330 335 337 338 335 330 328 327 327 329 330 330
214 208 210 218 260 284 313 321 320 321 327 336 341 339 341 342 341 339 336 331 328 330
209 207 216 234 281 300 319 320 318 329 344 344 342 342 344 341 336 333 328 327 327 325
205 209 204 231 280 309 318 323 332 346 351 346 347 345 341 335 332 333 332 334 338 343
194 198 202 239 291 309 315 316 322 356 351 351 353 344 341 344 351 352 347 350 351 348
192 198 225 271 301 314 138 4 331 337 354 356 358 14 15 12 15 25 29 18 2 351
189 202 229 294 167 143 319 340 7 338 348 358 5 14 19 21 23 28 17 21 34 19
179 205 275 153 141 104 97 68 54 37 24 14 17 29 22 20 22 25 30 30 25 22
Wind_Speed_850mb
27 25 18 11 8 9 10 14 14 18 24 30 34 35 34 34 33 36 25 33 37 43
30 25 18 12 14 13 12 13 17 23 28 32 33 37 34 36 32 28 35 37 41 40
29 24 17 16 16 13 12 17 23 31 34 37 36 34 34 33 33 33 38 36 40 47
34 30 25 22 16 13 17 21 28 31 34 33 32 31 25 24 25 27 30 36 43 50
32 32 26 24 20 21 22 24 26 25 27 31 36 34 28 24 22 24 29 34 45 43
37 33 29 29 26 21 21 25 20 28 36 39 33 25 23 24 26 29 33 36 39 40
36 38 36 31 23 12 17 20 29 31 35 35 30 22 23 27 29 31 33 33 33 36
42 44 37 24 10 9 17 26 29 34 32 25 23 24 27 29 31 31 31 32 34 35
47 38 27 9 9 15 23 32 30 20 17 16 19 25 27 29 31 33 35 39 40 36
41 28 14 9 10 18 28 24 13 11 12 15 19 24 28 31 33 32 33 36 35 30
32 20 13 10 14 23 22 9 3 7 13 17 21 29 29 26 27 28 30 26 26 23
24 15 11 12 16 9 1 2 7 13 13 17 24 22 24 26 25 24 25 26 25 24
25 18 10 8 4 8 2 7 4 7 11 16 17 20 25 28 25 18 22 23 21 23
22 10 4 12 13 7 15 15 11 8 7 10 14 17 22 25 25 23 23 20 20 27
Wind_Direction_850mb
198 200 193 210 237 273 294 320 342 339 333 330 327 324 323 321 326 323 325 325 328 330
203 198 204 216 224 242 270 286 307 321 319 321 318 317 317 319 321 322 322 320 325 335
200 198 206 222 229 247 264 290 307 315 319 320 323 322 321 321 319 317 314 324 334 336
195 195 210 225 238 253 275 290 300 311 319 325 329 332 340 346 342 337 333 332 334 326
198 207 213 224 239 254 268 289 309 323 326 323 324 323 324 333 332 329 332 339 336 334
202 213 218 217 234 245 274 293 314 320 322 329 338 340 336 337 332 328 330 334 330 331
208 219 221 227 229 263 295 306 315 326 330 335 337 338 335 330 328 327 327 329 330 330
214 208 210 218 260 284 313 321 320 321 327 336 341 339 341 342 341 339 336 331 328 330
209 207 216 234 281 300 319 320 318 329 344 344 342 342 344 341 336 333 328 327 327 325
205 209 204 231 280 309 318 323 332 346 351 346 347 345 341 335 332 333 332 334 338 343
194 198 202 239 291 309 315 316 322 356 351 351 353 344 341 344 351 352 347 350 351 348
192 198 225 271 301 314 138 4 331 337 354 356 358 14 15 12 15 25 29 18 2 351
189 202 229 294 167 143 319 340 7 338 348 358 5 14 19 21 23 28 17 21 34 19
179 205 275 153 141 104 97 68 54 37 24 14 17 29 22 20 22 25 30 30 25 22